EXPRESS-A4              
1 27441U 02029A   19261.62410589 -.00000247  00000-0  00000+0 0  9998
2 27441   7.4004  51.6640 0017293  91.3750 224.4802  1.00267801 63268
SL-12 R/B(2)            
1 27444U 02029D   19260.62156846 -.00000236  00000-0  00000-0 0  9992
2 27444  12.4758  27.8026 0014209 328.5968 208.8373  0.99273759 62620